Trang, Thailand

3:40 AM +07 on May 23, 2018 (GMT +0700)
Trang

Weather History for VTST - February, 2014

Change the Weather History Date:

Saturday, February 22, 2014

  Actual Average (WUND) Record (WUND)
Temperature  
Mean Temperature 82 °F -  
Max Temperature 94 °F 94 °F - (-1)
Min Temperature 71 °F 71 °F - (-1)
Cooling Degree Days 18    
Growing Degree Days 32 (Base 50)    
Moisture  
Dew Point 68 °F    
Average Humidity 55    
Maximum Humidity 94    
Minimum Humidity 34    
Precipitation  
Precipitation 0.00 in 0.05 in - ()
Sea Level Pressure  
Sea Level Pressure 29.88 in    
Wind  
Wind Speed 6 mph ()    
Max Wind Speed 15 mph    
Max Gust Speed -    
Visibility 6.2 miles    
Events      
Averages and records for this station are not official NWS values.
T = Trace of Precipitation, MM = Missing Value Source: Averaged Metar Reports

Daily Weather History Graph

Daily Weather History Graph

Search for Another Location

Airport or City:

Astronomy

Feb. 22, 2014 Rise Set
Actual Time 6:37 AM +07 6:33 PM +07
Civil Twilight 6:16 AM +07 6:54 PM +07
Nautical Twilight 5:51 AM +07 7:18 PM +07
Astronomical Twilight 5:27 AM +07 7:43 PM +07
Moon No Moon Rise 11:44 AM +07
Length of Visible Light 12h 38m
Length of Day
11h 55m
Waning Gibbous, 55% of the Moon is Illuminated
Feb 22
Waning Gibbous
Feb 23
Last Quarter
Mar 1
New
Mar 8
First Quarter
Mar 17
Full

Hourly Weather History & Observations

Time (+07) Temp. Heat Index Dew Point Humidity Pressure Visibility Wind Dir Wind Speed Gust Speed Precip Events Conditions
1:00 AM 78 °F - 70 °F 71% 29.92 in 6 mi ENE 5.8 mph - -   Clear
4:00 AM 77 °F - 70 °F 74% 29.90 in 6 mi NE 4.6 mph - -   Clear
7:00 AM 74 °F - 69 °F 81% 29.92 in 4 mi Calm Calm - -   Mist
7:00 AM 71.6 °F - 69.8 °F 94% 29.89 in 4.3 mi Calm Calm - N/A   Partly Cloudy
8:00 AM 80.6 °F 83.9 °F 69.8 °F 70% 29.92 in 5.0 mi Calm Calm - N/A   Partly Cloudy
9:00 AM 86.0 °F 89.4 °F 68.0 °F 55% 29.92 in 5.6 mi East 3.5 mph - N/A   Partly Cloudy
10:00 AM 89 °F - 68 °F 41% 29.97 in 6 mi NE 6.9 mph - -   Scattered Clouds
10:00 AM 87.8 °F 91.4 °F 68.0 °F 52% 29.92 in 6.2 mi ENE 8.1 mph - N/A   Partly Cloudy
11:00 AM 89.6 °F 93.4 °F 68.0 °F 49% 29.92 in 6.2 mi ENE 12.7 mph - N/A   Partly Cloudy
12:00 PM 91.4 °F 94.0 °F 66.2 °F 43% 29.89 in 6.2 mi ENE 13.8 mph - N/A   Partly Cloudy
1:00 PM 93 °F - 68 °F 34% 29.90 in 9 mi NE 11.5 mph - -   Scattered Clouds
1:00 PM 91.4 °F 95.4 °F 68.0 °F 46% 29.86 in 6.2 mi East 15.0 mph - N/A   Partly Cloudy
2:00 PM 91.4 °F 94.0 °F 66.2 °F 43% 29.83 in 6.2 mi ENE 13.8 mph - N/A   Partly Cloudy
3:00 PM 91.4 °F 94.0 °F 66.2 °F 43% 29.80 in 6.2 mi East 13.8 mph - N/A   Partly Cloudy
4:00 PM 91 °F - 67 °F 35% 29.84 in 9 mi ENE 10.4 mph - -   Scattered Clouds
4:00 PM 91.4 °F 94.0 °F 66.2 °F 43% 29.80 in 6.2 mi ENE 11.5 mph - N/A   Partly Cloudy
5:00 PM 87.8 °F 91.4 °F 68.0 °F 52% 29.80 in 6.2 mi NE 11.5 mph - N/A   Partly Cloudy
6:00 PM 86.0 °F 89.4 °F 68.0 °F 55% 29.80 in 6.2 mi NE 10.4 mph - N/A   Partly Cloudy
7:00 PM 83 °F - 69 °F 53% 29.86 in 7 mi NE 9.2 mph - -   Scattered Clouds
10:00 PM 80 °F - 70 °F 64% 29.93 in 6 mi ENE 5.8 mph - -   Scattered Clouds